User: anonymous   Login
Location: *
(37.5724°S, 58.0067°E)
Time: 11:35:04
(UTC+00:00)
Language:

CZ-2C R/B - Orbit

View from above orbital plane
View from above orbital plane
View from above satellite
View from above satellite

Ground track
Ground track

The orbit data is extracted from the following two-line orbital elements,

1 28480U 04046B   20338.12511536  .00000050  00000-0  33294-4 0  9996
2 28480  98.0627 359.8612 0143118  85.6349 316.8708 14.25735771834474
Epoch (UTC): 03 December 2020 03:00:09
Eccentricity: 0.0143118
inclination: 98.0627°
perigee height: 703 km
apogee height: 909 km
right ascension of ascending node: 359.8612°
argument of perigee: 85.6349°
revolutions per day: 14.25735771
mean anomaly at epoch: 316.8708°
orbit number at epoch: 83447

The dashed part of the orbit path shows where the satellite is in the earth's shadow,  

DLR